Regional Weather Roundup
Issued by NWS

Home | Current Version | Previous Version | Graphics & Text | Print | Product List | Glossary On
Versions: 1 2 3 4 5 6 7 8 9 10 11 12 13 14 15 16 17 18 19 20 21 22 23 24 25 26 27 28 29 30 31 32 33 34 35 36 37 38 39 40 41 42 43 44 45 46 47 48 49 50
436
ASUS43 KIND 262109
RWRIN

WEATHER ROUNDUP FOR INDIANA
NATIONAL WEATHER SERVICE INDIANAPOLIS IN
500 PM EDT MON JUN 26 2017

NOTE: "FAIR" INDICATES FEW OR NO CLOUDS BELOW 12,000 FEET WITH NO
SIGNIFICANT WEATHER AND/OR OBSTRUCTIONS TO VISIBILITY.

* - STATION DOES NOT REPORT WEATHER SUCH AS PRECIPITATION OR FOG.

+ - STATION NOT QUALITY CONTROLLED BY THE NATIONAL WEATHER SERVICE.
    USE DATA WITH CAUTION...ESPECIALLY DEWPOINT AND RELATIVE
    HUMIDITY OBSERVATIONS.

INZ001>003-010>013-019-020-262200-
NORTHWEST INDIANA

CITY           SKY/WX    TMP DP  RH WIND       PRES   REMARKS
GARY /AIRPORT/ MOSUNNY   73  36  25 NW14G31   30.04F
KNOX *+        PTSUNNY   64  41  42 W7        30.05F
LA PORTE +     MOSUNNY   69  48  47 NW12G17   30.04S
MICHIGAN CITY+ MOSUNNY   68  46  45 NW7G18    30.04F
MONTICELLO +   PTSUNNY   71  45  39 W16G26    30.04F
VALPARAISO     PTSUNNY   68  48  48 N3        30.04F

$$

LMZ046-743>745-262200-
SOUTHERN LAKE MICHIGAN

STATION/POSITION TIME  TEMP    WIND        PRES    WAVE
                       AIR SEA DIR/SP/G            HT
                 (UTC) (F)     (DEG/KT/KT) (MB)    (FT)
BURNS HARBOR     2040   65      30/ 10/ 12 1017.6F
MICHIGAN CITY    2040   66     350/  9/ 10   N/A
5NW MICH CITY    2100   65 67  360/  8/ 10   N/A     2

$$

INZ004-005-014>016-021>024-262200-
NORTH CENTRAL INDIANA

CITY           SKY/WX    TMP DP  RH WIND       PRES   REMARKS
ELKHART        PTSUNNY   70  45  40 W13       30.02F
GOSHEN         CLOUDY    66  48  52 SW7       30.03F
LOGANSPORT +   PTSUNNY   70  46  43 SW24      30.05F
PERU/GRISSOM   CLOUDY    71  48  43 W21G28    30.03F
ROCHESTER +    MOSUNNY   72  43  35 N21G26    30.05R
SOUTH BEND     MOSUNNY   69  45  41 NW13G25   30.03F
WARSAW +       RAIN      57  50  77 S3        30.07R

$$

INZ006>009-017-018-025>027-262200-
NORTHEAST INDIANA

CITY           SKY/WX    TMP DP  RH WIND       PRES   REMARKS
AUBURN +       LGT RAIN  61  46  59 S5G21     30.03F
FORT WAYNE     PTSUNNY   69  45  41 SW22      30.04F THUNDER
HUNTINGTON +   MOSUNNY   69  46  42 W15G22    30.02F
KENDALLVILLE + LGT RAIN  61  47  59 W17G31    30.05R

$$

INZ028-029-035-036-043>045-051>053-262200-
WEST CENTRAL INDIANA

CITY           SKY/WX    TMP DP  RH WIND       PRES   REMARKS
CRAWFORDSVL +  CLOUDY    69  47  46 W16G23    30.11S
GREENCASTLE +  CLOUDY    68  46  45 W9        30.13S
LAFAYETTE      MOSUNNY   70  49  47 W13G22    30.06F
TERRE HAUTE    MOSUNNY   69  46  43 NW14G24   30.14F

$$

INZ030>032-037>040-046>048-054>057-064-065-262200-
CENTRAL INDIANA

CITY           SKY/WX    TMP DP  RH WIND       PRES   REMARKS
CP ATTERBURY + CLOUDY    72  50  46 W7        30.11F
COLUMBUS       MOSUNNY   72  41  33 W12       30.12F
FRANKFORT +    CLOUDY    73  48  40 W17G28    30.10F
GREENWOOD *+   CLOUDY    70  44  38 W13G23    30.11F
INDIANAPOLIS   CLOUDY    69  47  45 W18       30.10F
-EAGLE CREEK   PTSUNNY   69  47  45 NW14      30.09F
KOKOMO +       CLOUDY    72  47  40 W24       30.06F
MARION +       PTSUNNY   70  45  40 W17       30.06F
MT COMFORT *+  CLOUDY    70  46  43 W14       30.09F
SHELBYVILLE    CLOUDY    73  46  38 W14       30.09F
ZIONSVILLE +   PTSUNNY   68  47  47 W15G22    30.10F

$$

INZ033-034-041-042-049-050-058-059-262200-
EAST CENTRAL INDIANA

CITY           SKY/WX    TMP DP  RH WIND       PRES   REMARKS
MUNCIE         CLOUDY    70  47  43 W12G21    30.07F
RICHMOND +     CLOUDY    68  46  45 W14       30.11S

$$

INZ060-061-067>069-081>083-085>088-262200-
SOUTHWEST INDIANA

CITY           SKY/WX    TMP DP  RH WIND       PRES   REMARKS
EVANSVILLE     MOSUNNY   79  49  34 W9        30.14F
HUNTINGBURG *+ PTSUNNY   74  51  44 NW5       30.14F
WASHINGTON +   CLOUDY    71  45  39 NW9       30.14S

$$

INZ062-063-066-070>080-084-089>092-262200-
SOUTH CENTRAL AND SOUTHEAST INDIANA

CITY           SKY/WX    TMP DP  RH WIND       PRES   REMARKS
BEDFORD +      CLOUDY    73  46  38 W6G21     30.13F
BLOOMINGTON    CLOUDY    72  46  39 W14G24    30.13F
MADISON *+     MOSUNNY   77  43  29 W10G17    30.13F
NORTH VERNON + CLOUDY    70  48  46 W8        30.12F
SEYMOUR +      PTSUNNY   75  52  43 NW8       30.11F

$$





USA.gov is the U.S. government's official web portal to all federal, state and local government web resources and services.